Location: Unspecified
(0.0000°N, 0.0000°E)
Time: 18:00:49
(UTC+00:00)

COSMOS 2452 - Visible Passes

Search period start: 17 May 2026 00:00
Search period end: 27 May 2026 00:00
Orbit: 1482 x 1506 km, 82.5° (Epoch: 17 May)

Date Brightness Start Highest point End Pass type
(mag) Time Alt. Az. Time Alt. Az. Time Alt. Az.
17 May ? 01:44:58 10° NNE 01:47:43 19° NE 01:47:43 19° NE visible
17 May ? 03:40:49 10° NNW 03:43:34 21° NW 03:43:34 21° NW visible
18 May ? 02:50:29 10° N 02:53:46 27° N 02:53:46 27° N visible
19 May ? 02:01:31 10° NNE 02:04:03 21° NNE 02:04:03 21° NNE visible
20 May ? 01:14:14 10° NE 01:14:24 10° NE 01:14:24 10° NE visible
20 May ? 03:08:46 10° NNW 03:10:15 16° NNW 03:10:15 16° NNW visible
21 May ? 02:18:52 10° N 02:20:40 18° N 02:20:40 18° N visible
22 May ? 01:30:18 10° NNE 01:31:07 13° NNE 01:31:07 13° NNE visible
23 May ? 02:36:53 10° NNW 02:37:29 12° NNW 02:37:29 12° NNW visible
24 May ? 01:47:21 10° N 01:48:01 13° N 01:48:01 13° N visible
